Flag for France Weather past 2 weeks in Le Mans, France

Now
68 °F

Clear.


Feels Like: 68 °F
Forecast: 57 / 71 °F
Wind: 6 mph from North

Location: Le Mans Airport

Current Time: Sep 21, 2014 at 12:34:48 AM

Latest Report: Sep 21, 2014 at 12:00 AM


Visibility: N/A

Pressure: 30.04 "Hg

Humidity: 73%

Dew point: 59 °F

Location of Le MansLocation

Historic Weather in Le Mans — Graph

°F

Le Mans temperature yesterday

Maximum temperature yesterday: 79 °F (at 1:00 PM)
Minimum temperature yesterday: 57 °F (at 8:00 AM)
Average temperature yesterday: 67 °F

Past Weeks' High & Low Weather Summary

 TemperatureHumidityPressure
High82 °F (Sep 8, 3:00 PM)100% (Sep 20, 5:30 AM)30.18 "Hg (Sep 20, 5:30 AM)
Low48 °F (Sep 12, 6:30 AM)36% (Sep 12, 6:30 PM)29.71 "Hg (Sep 17, 5:30 AM)
Average67 °F69%29.96 "Hg
* Reported Sep 5 10:00 PM — Sep 20 10:30 PM, Le Mans, Weather by CustomWeather, © 2014

Note: Actual official high and low records may vary slightly from our data, if they occured in-between our weather recording intervals... More about our weather records

Advertising

Le Mans weather history for previous 24 hours

 ConditionsComfort  
Time TempWeatherWind HumidityBarometerVisibility
10:30 PM
Sep 20
68 °FClear.1 mph78%30.01 "HgN/A
10:00 PM68 °FMild.1 mph83%30.01 "HgN/A
9:30 PM68 °FClear.No wind78%30.01 "HgN/A
9:00 PM68 °FClear.No wind78%30.01 "HgN/A
8:30 PM70 °FClear.No wind73%29.98 "HgN/A
8:00 PM72 °FClear.No wind69%29.98 "HgN/A
7:30 PM72 °FClear.2 mph69%29.98 "HgN/A
3:30 PM75 °FClear.7 mph57%29.98 "HgN/A
3:00 PM75 °FClear.7 mph61%29.98 "HgN/A
2:30 PM77 °FClear.7 mph51%29.98 "HgN/A
2:00 PM77 °FClear.5 mph51%29.98 "HgN/A
1:30 PM79 °FClear.5 mph51%29.98 "HgN/A
1:00 PM79 °FClear.3 mph54%29.98 "HgN/A
12:30 PM77 °FClear.6 mph54%29.98 "HgN/A
12:00 PM77 °FClear.2 mph57%29.98 "HgN/A
11:30 AM75 °FClear.2 mph65%29.98 "HgN/A
11:00 AM73 °FClear.1 mph65%29.98 "HgN/A
10:30 AM70 °FClear.1 mph73%29.98 "HgN/A
10:00 AM66 °FClear.2 mph83%29.98 "HgN/A
9:30 AM64 °FClear.No wind83%29.95 "Hg4 mi
9:00 AM61 °FFog.2 mph94%29.95 "Hg3 mi
8:30 AM59 °FFog.No wind94%29.95 "Hg2 mi
8:00 AM57 °FFog.No wind94%29.95 "Hg2 mi
7:30 AM59 °FFog.1 mph94%29.95 "Hg2 mi
7:00 AM59 °FClear.No wind94%29.92 "Hg4 mi
6:30 AM59 °FFog.2 mph94%29.92 "Hg2 mi
6:00 AM59 °FClear.2 mph100%29.92 "Hg4 mi
5:30 AM59 °FFog.3 mph100%29.92 "Hg3 mi
5:00 AM59 °FFog.2 mph94%29.92 "Hg1 mi
4:30 AM61 °FLight fog.No wind94%29.92 "Hg1 mi
4:00 AM61 °FFog.No wind88%29.92 "Hg1 mi
3:00 AM61 °FFog.No wind94%29.92 "Hg1 mi
2:30 AM63 °FFog.No wind88%29.92 "Hg2 mi
2:00 AM64 °FClear.No wind88%29.89 "HgN/A
1:30 AM66 °FMild.2 mph83%29.89 "HgN/A
1:00 AM66 °FMild.2 mph83%29.89 "HgN/A
12:30 AM66 °FMild.2 mph88%29.89 "HgN/A
12:00 AM66 °FThundershowers. Overcast.2 mph88%29.92 "HgN/A
Weather by CustomWeather, © 2014

See weather overviewHow to use our weather pages